Showing default

GALILEO 10 (206), 40890

Orbit data source: Space-Track

GALILEO 10 (206), 40890 is a payload satellite owned by GNSS Agency (ESA) that was launched on Fri, 11 Sep 2015 UTC via a SOYUZ-ST-B launch vehicle from the French Guiana (FRGUI). Payload-class satellites include a variety of spacecraft equipped with specific instruments for various scientific and technological missions. These include communications satellites like Starlink; space stations such as the ISS; scientific satellites like the Hubble; Earth observation satellites from companies like Planet Labs, Umbra, and HawkEye 360; GPS; miniature CubeSats for education and research; and military/defense satellites.

Loading next visibility...
Identifier
40890, 2015-045B
Orbit
Active
Country
Flag of ESAESA
Related business
Manufacturer
OHB
Mission
Operational Civil Navigation
Bus & Motor
GALILEOSAT, AOCS
Mass
733 kg wet, 660 kg dry
Launch date (UTC)
2015-09-11 (10 years ago)
Launch vehicle
SOYUZ-ST-B
Launch site
French Guiana (FRGUI)
Object type
Payload
Rocket body
Debris
Shape & HBR
Box + 2 Pan, 7.4 m
Radar Cross Section
9.223 m², Large (>1 m²)

Expand to show TLE details & history
Last TLE update: 2 days ago

TLE from 2 days ago
0 GALILEO 10 (206)
1 40890U 15045B   25259.52198991  .00000012  00000-0  00000-0 0  9996
2 40890  55.0370 229.1592 0002091 344.6792  15.2834  1.70473064 62373
Epoch: 2025-09-16T12:31Z
TLE epoch observation values (Epoch: 2025-09-16T12:31:39.928Z)
Latitude
0.00001°
Longitude
45.52472°
Altitude
23,216.59 km
Speed
3.67 km/s
True Right ascension
15h 16m 36s
True Declination
0° 00' 00"
Sunlit
Object was in daylight at epoch
Visualization orbit readout
Latitude
Unknown
Longitude
Unknown
Altitude
Unknown
Speed
Unknown
Apparent Right ascension
Unknown
Apparent Declination
Unknown
Sunlit
N/A
Visualization observer readout
Local Sidereal Time
22:02:46
Azimuth
Unknown
Elevation
Unknown
Doppler factor
Unknown
Orbital elements
Apogee altitude
23,228.488 km
Perigee altitude
23,216.109 km
Semi-major axis
29,600.436 km
Eccentricity
0.00021
Inclination
55.037°
RAAN
229.1592°
Arg. of periapsis
344.6792°
True anomaly
15.28972°
Mean anomaly
15.2834°
Eccentric anomaly
15.28656°
Mean motion
0.42618 °/min
Orbital period
844.71 mins
BSTAR
0
Loading maneuver chart data...
Computing Atmospheric mass density...
Loading historical data...
Loading historical data...
Loading historical data...
Loading historical data...
Loading historical data...
Loading historical data...
Loading historical data...
Other satellites on launch #45 in the year 2015 (2015-09-11 UTC)

Documentation

Showing up to 5 results
|